Regional Weather Roundup
Issued by NWS Kansas City/Pleasant Hill, MO

Home | Current Version | Previous Version | Graphics & Text | Print | Product List | Glossary Off
Versions: 1 2 3 4 5 6 7 8 9 10 11 12 13 14 15 16 17 18 19 20 21 22 23 24 25 26 27 28

000
ASUS43 KEAX 221210
RWREAX

WEATHER ROUNDUP FOR EASTERN KANSAS AND NORTHWEST MISSOURI
NATIONAL WEATHER SERVICE KANSAS CITY/PLEASANT HILL MO
700 AM CDT TUE AUG 22 2017

KSZ040-057-103>105-MOZ028-029-037-043-221300-
...KANSAS CITY METROPOLITAN AREA...

CITY           SKY/WX    TMP DP  RH WIND       PRES   REMARKS
K.C. INTL      CLOUDY    65  64  97 W5        30.06R
6HR MIN TEMP:  65; 6HR MAX TEMP:  70; 6HR PCP:  2.07;

K.C. DOWNTOWN  CLOUDY    67  66  97 NW6       30.05R
6HR MIN TEMP:  67; 6HR MAX TEMP:  72; 6HR PCP:  2.20;

LEES SUMMIT    CLOUDY    66  66 100 MISG      30.06R
6HR MIN TEMP:  66; 6HR MAX TEMP:  70; 6HR PCP:  1.95;

OLATHE - IXD   CLOUDY    66  65  96 N5        30.06R
6HR MIN TEMP:  66; 6HR MAX TEMP:  70; 6HR PCP:  2.62;

OLATHE - OJC   CLOUDY    66  66 100 N5        30.06R
6HR MIN TEMP:  65; 6HR MAX TEMP:  69; 6HR PCP:  1.74;

LAWRENCE       CLOUDY    67  67 100 N6        30.06R

$$

MOZ001>008-011>017-020>025-030>033-038>040-044>046-053-054-221300-
...NORTHERN AND CENTRAL MISSOURI...

CITY           SKY/WX    TMP DP  RH WIND       PRES   REMARKS
ST. JOSEPH     CLOUDY    66  66 100 NW3       30.07R
6HR MIN TEMP:  65; 6HR MAX TEMP:  70; 6HR PCP:  0.60;

WARRENSBURG    LGT RAIN  64  64 100 SW8       30.03R
WHITEMAN AFB   LGT RAIN  67  67 100 W7        30.00R
6HR MIN TEMP:  66; 6HR MAX TEMP:  70; 6HR PCP:  2.33;

CLINTON        LGT RAIN  68  68 100 S3        30.03R
SEDALIA        LGT RAIN  70  70 100 NW3       30.01R
6HR MIN TEMP:  70; 6HR MAX TEMP:  73; 6HR PCP:  2.42;

WARSAW         NOT AVBL
CHILLICOTHE      N/A     68  68 100 VRB5      30.03R
6HR MIN TEMP:  67; 6HR MAX TEMP:  71; 6HR PCP:  0.39;

KIRKSVILLE     MOCLDY    66  65  96 NW7       30.00R
6HR MIN TEMP:  65; 6HR MAX TEMP:  69; 6HR PCP:  0.25;


$$

MOZ041-047>049-056>058-063>065-088>090-097-221300-
...EASTERN AND SOUTHERN MISSOURI...

CITY           SKY/WX    TMP DP  RH WIND       PRES   REMARKS
ST. LOUIS INTL LGT RAIN  71  70  96 E5        29.97F
6HR MIN TEMP:  70; 6HR MAX TEMP:  84; 6HR PCP:  0.16;

SPIRIT OF STL  LGT RAIN  71  71 100 W3        29.98R
COLUMBIA       CLOUDY    70  69  97 SE8       29.96F
JEFFERSON CITY LGT RAIN  71  71 100 SE8       29.95F
ROLLA          RAIN      69  69 100 N7        30.03S FOG
OSAGE BEACH    RAIN      70  70 100 SW5       30.00F
SPRINGFIELD    TSTM      69  69 100 NW8G20    30.08R FOG
BRANSON        MOCLDY    75  70  83 W9        30.04R
JOPLIN         CLOUDY    76  70  82 NE21G32   30.10R
WEST PLAINS    CLOUDY    74  72  93 SW7       30.03R

$$

IAZ060-094-KSZ022-034>040-054-083-096-NEZ052-066-093-221300-
...KANSAS...SOUTHEAST NEBRASKA AND IOWA...

CITY           SKY/WX    TMP DP  RH WIND       PRES   REMARKS
TOPEKA         CLOUDY    68  68 100 NE5       30.07R
6HR MIN TEMP:  67; 6HR MAX TEMP:  73; 6HR PCP:  1.87;

MANHATTAN      CLOUDY    68  66  93 NE7       30.08R
EMPORIA        LGT RAIN  69  67  93 E8        30.03R
CHANUTE        LGT RAIN  71  67  87 NE8       30.06R
WICHITA        MOCLDY    74  72  93 S5        30.00R
OMAHA          CLOUDY    64  61  90 N8        30.10R
LINCOLN        CLEAR     64  62  93 N6        30.13R
FALLS CITY     CLOUDY    64  63  96 NW5       30.08R
LAMONI         CLOUDY    63  62  97 NW9       30.04R
DES MOINES     PTCLDY    64  62  93 NW10      30.02R

$$





USA.gov is the U.S. government's official web portal to all federal, state and local government web resources and services.